sat.trackr.live / text

‹ back to catalog

TRANSPORTER-16 OBJECT AF

NORAD 68445 · 2026-067AF

PAYLOAD ACTIVE UNKNOWN

§ Identity

Operator
Country
TBD
Launch date
2026-03-30
Launch site
AFWTR
Launch vehicle
Mass (kg)
RCS (m²)

External: N2YO · Heavens-Above · Gunter

§ Orbital elements

Epoch: 2026-05-24T20:15:03.729024Z

Period
94.91 min
Inclination
97.4508°
Eccentricity
0.0005996
Mean motion
15.17165383 rev/d
Perigee alt
510.3 km
Apogee alt
518.5 km
Semi-major
6,892.5 km
B*
1.8443e-4
RAAN
103.5509°
Arg perigee
141.6113°
Mean anomaly
218.5548°
Rev number
839

§ Raw data

TRANSPORTER-16 OBJECT AF1 68445U 26067AF  26144.84379316  .00003596  00000+0  18443-3 0  99912 68445  97.4508 103.5509 0005996 141.6113 218.5548 15.17165383  8394

JSON: /api/v1/satellites/68445 · /tle

For live sub-satellite position, see the globe view (requires WebGL).

§ Visibility from observer

Set your observer location to see the next 7 days of passes ≥ 10°. The values pass through the URL so the page stays shareable.

No JS? Fill the form by hand. The geolocation button needs JavaScript.